Location: Peterborough
(44.3091°N, 78.3197°W)
Time: 20:09:48
(UTC-04:00)

Explorer 11/Cluster Stage 4 - Pass Details

Date: 23 March 2023
Orbit: 466 x 1237 km, 28.8° (Epoch: 06 June)

Event Time Altitude Azimuth Distance (km) Brightness Sun altitude
Rises 11:30:53 0° 243° (WSW) 3,406 9.8 40.5°
Reaches altitude 10° 11:33:56 10° 227° (SW) 2,614 9.4 40.8°
Maximum altitude 11:38:28 20° 182° (S) 2,153 9.8 41.3°
Drops below altitude 10° 11:43:32 10° 139° (SE) 2,983 10.7 41.8°
Sets 11:47:19 0° 124° (SE) 4,047 10.9 42.2°
